Voltar ao catálogo

SL-8 R/B

AtivoPO
NORAD 21088·ROCKET BODY·🇷🇺 Russia

Lançado Jan 29, 1991 de Plesetsk Cosmodrome

Loading…

Próximas Passagens (próximas 24 horas)

TLE

AtualizadoSource: Space-Track

Época: Sep 14, 2026, 09:31 UTC

1 21088U 91006B   26257.39689932  .00000107  00000-0  92327-4 0  9991
2 21088  82.9440  29.6441 0021536 223.8628 156.4884 13.77522484790052

Acompanhe SL-8 R/B em tempo real com AllMySat

Download on the App Store